Terug naar catalogus

ATLAS 5 CENTAUR DEB

LostHEO
NORAD 46863·DEBRIS·🇺🇸 United States

Gelanceerd Oct 17, 2018 vanaf Cape Canaveral Space Force Station

Loading…

Volgende Passages (komende 24 uur)

TLE

VerouderdSource: Space-Track

Epoch: Sep 24, 2024, 18:51 UTC

1 46863U 18079DU  24268.78570735 -.00000202  00000-0  00000+0 0  9990
2 46863  12.3532  56.6448 4752913 288.1258  26.9549  1.94168322 27665

Volg ATLAS 5 CENTAUR DEB in realtime met AllMySat

Download on the App Store